| time (UTC) | temp F | wind direction | speed MPH | gust MPH | rain 1hr in | rain 24hr in | rain mn in | humidity % | barometer mb |
| 20260506155211 | 74 | 196 | 12.0 | 23.0 | 0.00 | 0.00 | 0.00 | 48 | 1003.3 |
| 20260506154209 | 74 | 180 | 10.0 | 19.0 | 0.00 | 0.00 | 0.00 | 48 | 1003.4 |
| 20260506153708 | 74 | 138 | 9.0 | 17.0 | 0.00 | 0.00 | 0.00 | 48 | 1003.5 |
| 20260506153214 | 74 | 188 | 9.0 | 26.0 | 0.00 | 0.00 | 0.00 | 48 | 1003.4 |
| 20260506152211 | 74 | 161 | 10.0 | 26.0 | 0.00 | 0.00 | 0.00 | 48 | 1003.4 |
| 20260506151714 | 74 | 161 | 12.0 | 24.0 | 0.00 | 0.00 | 0.00 | 48 | 1003.4 |
| 20260506151219 | 74 | 205 | 13.0 | 24.0 | 0.00 | 0.00 | 0.00 | 48 | 1003.5 |
| 20260506150714 | 74 | 168 | 12.0 | 26.0 | 0.00 | 0.00 | 0.00 | 48 | 1003.6 |
| 20260506145719 | 74 | 173 | 12.0 | 28.0 | 0.00 | 0.00 | 0.00 | 48 | 1003.6 |
| 20260506144710 | 74 | 199 | 13.0 | 30.0 | 0.00 | 0.00 | 0.00 | 48 | 1003.6 |
| 20260506144211 | 74 | 197 | 14.0 | 31.0 | 0.00 | 0.00 | 0.00 | 47 | 1003.6 |
| 20260506143210 | 76 | 196 | 18.0 | 31.0 | 0.00 | 0.00 | 0.00 | 46 | 1003.6 |
| 20260506142716 | 76 | 187 | 18.0 | 31.0 | 0.00 | 0.00 | 0.00 | 46 | 1003.6 |
| 20260506142209 | 76 | 186 | 15.0 | 27.0 | 0.00 | 0.00 | 0.00 | 45 | 1003.5 |
| 20260506141706 | 77 | 165 | 14.0 | 26.0 | 0.00 | 0.00 | 0.00 | 44 | 1003.5 |
| 20260506141207 | 76 | 194 | 13.0 | 26.0 | 0.00 | 0.00 | 0.00 | 44 | 1003.6 |
| 20260506140715 | 76 | 181 | 11.0 | 25.0 | 0.00 | 0.00 | 0.00 | 44 | 1003.5 |
| 20260506140217 | 76 | 215 | 11.0 | 25.0 | 0.00 | 0.00 | 0.00 | 41 | 1003.6 |
| 20260506135709 | 77 | 217 | 13.0 | 23.0 | 0.00 | 0.00 | 0.00 | 42 | 1003.5 |
| 20260506135219 | 77 | 195 | 13.0 | 23.0 | 0.00 | 0.00 | 0.00 | 42 | 1003.4 |
| 20260506133713 | 78 | 159 | 14.0 | 26.0 | 0.00 | 0.00 | 0.00 | 40 | 1003.4 |
| 20260506133220 | 79 | 177 | 13.0 | 28.0 | 0.00 | 0.00 | 0.00 | 40 | 1003.5 |
| 20260506132711 | 79 | 132 | 13.0 | 28.0 | 0.00 | 0.00 | 0.00 | 39 | 1003.5 |
| 20260506132210 | 79 | 197 | 12.0 | 28.0 | 0.00 | 0.00 | 0.00 | 40 | 1003.6 |
| 20260506131709 | 80 | 198 | 11.0 | 27.0 | 0.00 | 0.00 | 0.00 | 38 | 1003.7 |
| 20260506131214 | 80 | 198 | 12.0 | 28.0 | 0.00 | 0.00 | 0.00 | 39 | 1003.6 |
| 20260506130705 | 80 | 219 | 14.0 | 28.0 | 0.00 | 0.00 | 0.00 | 39 | 1003.7 |
| 20260506130217 | 80 | 200 | 13.0 | 25.0 | 0.00 | 0.00 | 0.00 | 39 | 1003.6 |
| 20260506125713 | 80 | 191 | 11.0 | 25.0 | 0.00 | 0.00 | 0.00 | 39 | 1003.7 |
| 20260506125210 | 79 | 188 | 14.0 | 27.0 | 0.00 | 0.00 | 0.00 | 39 | 1003.7 |
| 20260506123712 | 81 | 178 | 13.0 | 26.0 | 0.00 | 0.00 | 0.00 | 37 | 1003.8 |
| 20260506123217 | 80 | 184 | 14.0 | 28.0 | 0.00 | 0.00 | 0.00 | 37 | 1003.8 |
| 20260506122711 | 79 | 163 | 14.0 | 28.0 | 0.00 | 0.00 | 0.00 | 38 | 1003.8 |
| 20260506122215 | 78 | 221 | 15.0 | 28.0 | 0.00 | 0.00 | 0.00 | 39 | 1003.8 |
| 20260506121216 | 77 | 189 | 15.0 | 28.0 | 0.00 | 0.00 | 0.00 | 39 | 1004.0 |
| 20260506120708 | 77 | 168 | 15.0 | 28.0 | 0.00 | 0.00 | 0.00 | 40 | 1004.0 |
| 20260506120219 | 77 | 194 | 15.0 | 28.0 | 0.00 | 0.00 | 0.00 | 39 | 1003.9 |
| 20260506115707 | 78 | 169 | 15.0 | 27.0 | 0.00 | 0.00 | 0.00 | 38 | 1004.0 |
| 20260506115213 | 78 | 173 | 17.0 | 29.0 | 0.00 | 0.00 | 0.00 | 37 | 1004.0 |
| 20260506114706 | 79 | 159 | 17.0 | 29.0 | 0.00 | 0.00 | 0.00 | 37 | 1004.2 |
| 20260506114219 | 79 | 163 | 17.0 | 29.0 | 0.00 | 0.00 | 0.00 | 38 | 1004.1 |
| 20260506113712 | 79 | 157 | 17.0 | 29.0 | 0.00 | 0.00 | 0.00 | 38 | 1004.1 |
| 20260506113211 | 78 | 165 | 16.0 | 26.0 | 0.00 | 0.00 | 0.00 | 38 | 1004.3 |
| 20260506112708 | 78 | 173 | 14.0 | 25.0 | 0.00 | 0.00 | 0.00 | 38 | 1004.5 |
| 20260506112234 | 79 | 180 | 13.0 | 29.0 | 0.00 | 0.00 | 0.00 | 37 | 1004.5 |
| 20260506110709 | 78 | 192 | 15.0 | 25.0 | 0.00 | 0.00 | 0.00 | 37 | 1004.5 |
| 20260506110209 | 78 | 161 | 14.0 | 24.0 | 0.00 | 0.00 | 0.00 | 37 | 1004.7 |
| 20260506105713 | 78 | 169 | 12.0 | 27.0 | 0.00 | 0.00 | 0.00 | 37 | 1004.6 |
| 20260506105208 | 78 | 157 | 13.0 | 27.0 | 0.00 | 0.00 | 0.00 | 37 | 1004.7 |
| 20260506104707 | 77 | 178 | 14.0 | 27.0 | 0.00 | 0.00 | 0.00 | 38 | 1005.0 |
| 20260506104213 | 77 | 169 | 12.0 | 20.0 | 0.00 | 0.00 | 0.00 | 38 | 1004.9 |
| 20260506103705 | 77 | 168 | 11.0 | 26.0 | 0.00 | 0.00 | 0.00 | 38 | 1005.0 |
| 20260506103217 | 76 | 161 | 12.0 | 26.0 | 0.00 | 0.00 | 0.00 | 37 | 1005.2 |
| 20260506102712 | 76 | 207 | 13.0 | 26.0 | 0.00 | 0.00 | 0.00 | 38 | 1005.4 |
| 20260506102208 | 75 | 159 | 12.0 | 21.0 | 0.00 | 0.00 | 0.00 | 44 | 1005.3 |
| 20260506101711 | 75 | 159 | 12.0 | 21.0 | 0.00 | 0.00 | 0.00 | 45 | 1005.4 |
| 20260506101210 | 74 | 157 | 13.0 | 21.0 | 0.00 | 0.00 | 0.00 | 45 | 1005.6 |
| 20260506100714 | 75 | 130 | 12.0 | 26.0 | 0.00 | 0.00 | 0.00 | 45 | 1005.5 |
| 20260506100228 | 75 | 182 | 12.0 | 26.0 | 0.00 | 0.00 | 0.00 | 45 | 1005.7 |
| 20260506095715 | 75 | 149 | 13.0 | 31.0 | 0.00 | 0.00 | 0.00 | 46 | 1005.9 |
| 20260506095213 | 75 | 171 | 14.0 | 31.0 | 0.00 | 0.00 | 0.00 | 46 | 1005.8 |
| 20260506094712 | 75 | 99 | 14.0 | 31.0 | 0.00 | 0.00 | 0.00 | 46 | 1005.9 |
| 20260506094206 | 75 | 107 | 13.0 | 24.0 | 0.00 | 0.00 | 0.00 | 46 | 1005.9 |
| 20260506093710 | 75 | 180 | 14.0 | 24.0 | 0.00 | 0.00 | 0.00 | 46 | 1006.1 |
| 20260506093206 | 75 | 163 | 14.0 | 24.0 | 0.00 | 0.00 | 0.00 | 46 | 1006.2 |
| 20260506092215 | 74 | 161 | 14.0 | 21.0 | 0.00 | 0.00 | 0.00 | 46 | 1006.4 |
| 20260506091706 | 74 | 148 | 13.0 | 20.0 | 0.00 | 0.00 | 0.00 | 46 | 1006.5 |
| 20260506091212 | 74 | 116 | 12.0 | 22.0 | 0.00 | 0.00 | 0.00 | 48 | 1006.5 |
| 20260506090705 | 74 | 123 | 11.0 | 22.0 | 0.00 | 0.00 | 0.00 | 49 | 1006.5 |
| 20260506090214 | 74 | 109 | 11.0 | 17.0 | 0.00 | 0.00 | 0.00 | 51 | 1006.5 |
| 20260506085706 | 73 | 146 | 12.0 | 17.0 | 0.00 | 0.00 | 0.00 | 50 | 1006.5 |
| 20260506085211 | 73 | 122 | 11.0 | 17.0 | 0.00 | 0.00 | 0.00 | 50 | 1006.6 |
| 20260506084711 | 74 | 146 | 10.0 | 17.0 | 0.00 | 0.00 | 0.00 | 49 | 1006.7 |
| 20260506083716 | 74 | 154 | 9.0 | 15.0 | 0.00 | 0.00 | 0.00 | 50 | 1006.6 |
| 20260506083206 | 73 | 116 | 8.0 | 14.0 | 0.00 | 0.00 | 0.00 | 50 | 1006.6 |
| 20260506082706 | 73 | 136 | 8.0 | 15.0 | 0.00 | 0.00 | 0.00 | 50 | 1006.6 |
| 20260506082217 | 73 | 157 | 8.0 | 15.0 | 0.00 | 0.00 | 0.00 | 49 | 1006.6 |
| 20260506081212 | 73 | 184 | 7.0 | 12.0 | 0.00 | 0.00 | 0.00 | 48 | 1006.4 |
| 20260506080708 | 72 | 147 | 6.0 | 12.0 | 0.00 | 0.00 | 0.00 | 48 | 1006.4 |
| 20260506073219 | 70 | 225 | 5.0 | 10.0 | 0.00 | 0.00 | 0.00 | 53 | 1006.7 |
| 20260506072709 | 69 | 207 | 4.0 | 8.0 | 0.00 | 0.00 | 0.00 | 53 | 1006.7 |
| 20260506072218 | 69 | 178 | 3.0 | 8.0 | 0.00 | 0.00 | 0.00 | 53 | 1006.8 |
| 20260506071711 | 69 | 186 | 4.0 | 7.0 | 0.00 | 0.00 | 0.00 | 54 | 1006.8 |
| 20260506071207 | 68 | 219 | 3.0 | 7.0 | 0.00 | 0.00 | 0.00 | 54 | 1006.8 |
| 20260506070719 | 68 | 173 | 3.0 | 6.0 | 0.00 | 0.00 | 0.00 | 56 | 1006.9 |
| 20260506070205 | 67 | 248 | 3.0 | 6.0 | 0.00 | 0.00 | 0.00 | 56 | 1006.9 |
| 20260506062217 | 64 | 198 | 3.0 | 8.0 | 0.00 | 0.00 | 0.00 | 60 | 1007.1 |
| 20260506061719 | 64 | 215 | 3.0 | 8.0 | 0.00 | 0.00 | 0.00 | 61 | 1007.1 |
| 20260506061208 | 63 | 224 | 4.0 | 8.0 | 0.00 | 0.00 | 0.00 | 61 | 1007.1 |
| 20260506060718 | 63 | 261 | 5.0 | 8.0 | 0.00 | 0.00 | 0.00 | 62 | 1007.2 |
| 20260506060209 | 62 | 234 | 5.0 | 8.0 | 0.00 | 0.00 | 0.00 | 62 | 1007.2 |
| 20260506051214 | 59 | 254 | 4.0 | 8.0 | 0.00 | 0.00 | 0.00 | 70 | 1007.2 |
| 20260506050707 | 58 | 254 | 5.0 | 8.0 | 0.00 | 0.00 | 0.00 | 70 | 1007.1 |
| 20260506050207 | 58 | 236 | 6.0 | 8.0 | 0.00 | 0.00 | 0.00 | 70 | 1007.2 |
| 20260506044215 | 56 | 242 | 4.0 | 6.0 | 0.00 | 0.00 | 0.00 | 72 | 1007.2 |
| 20260506043715 | 56 | 244 | 4.0 | 6.0 | 0.00 | 0.00 | 0.00 | 73 | 1007.1 |
| 20260506043218 | 56 | 231 | 4.0 | 8.0 | 0.00 | 0.00 | 0.00 | 73 | 1007.0 |
| 20260506042713 | 56 | 246 | 4.0 | 8.0 | 0.00 | 0.00 | 0.00 | 73 | 1007.0 |
| 20260506042214 | 56 | 226 | 5.0 | 7.0 | 0.00 | 0.00 | 0.00 | 73 | 1007.0 |
| 20260506041717 | 55 | 232 | 5.0 | 7.0 | 0.00 | 0.00 | 0.00 | 73 | 1007.0 |
| 20260506040719 | 55 | 221 | 4.0 | 6.0 | 0.00 | 0.00 | 0.00 | 74 | 1006.9 |
| 20260506040215 | 55 | 227 | 4.0 | 6.0 | 0.00 | 0.00 | 0.00 | 74 | 1006.9 |
| 20260506035713 | 55 | 234 | 4.0 | 6.0 | 0.00 | 0.00 | 0.00 | 74 | 1006.9 |
| 20260506035211 | 54 | 222 | 4.0 | 7.0 | 0.00 | 0.00 | 0.00 | 74 | 1006.8 |
| 20260506034714 | 54 | 234 | 4.0 | 8.0 | 0.00 | 0.00 | 0.00 | 75 | 1006.8 |
| 20260506034213 | 54 | 234 | 5.0 | 8.0 | 0.00 | 0.00 | 0.00 | 75 | 1006.8 |
| 20260506033717 | 54 | 244 | 5.0 | 8.0 | 0.00 | 0.00 | 0.00 | 75 | 1006.7 |
| 20260506033210 | 54 | 249 | 5.0 | 8.0 | 0.00 | 0.00 | 0.00 | 75 | 1006.7 |
| 20260506032718 | 54 | 257 | 4.0 | 7.0 | 0.00 | 0.00 | 0.00 | 75 | 1006.6 |
| 20260506032206 | 54 | 227 | 4.0 | 7.0 | 0.00 | 0.00 | 0.00 | 75 | 1006.6 |
| 20260506031717 | 54 | 233 | 3.0 | 7.0 | 0.00 | 0.00 | 0.00 | 75 | 1006.5 |
| 20260506031215 | 54 | 226 | 3.0 | 5.0 | 0.00 | 0.00 | 0.00 | 75 | 1006.5 |
| 20260506030712 | 54 | 223 | 2.0 | 4.0 | 0.00 | 0.00 | 0.00 | 75 | 1006.5 |
| 20260506030214 | 54 | 257 | 3.0 | 4.0 | 0.00 | 0.00 | 0.00 | 75 | 1006.5 |
| 20260506025720 | 54 | 233 | 2.0 | 6.0 | 0.00 | 0.00 | 0.00 | 74 | 1006.5 |
| 20260506025214 | 54 | 230 | 3.0 | 6.0 | 0.00 | 0.00 | 0.00 | 74 | 1006.5 |
| 20260506024706 | 54 | 202 | 2.0 | 6.0 | 0.00 | 0.00 | 0.00 | 74 | 1006.5 |
| 20260506024214 | 54 | 258 | 2.0 | 5.0 | 0.00 | 0.00 | 0.00 | 74 | 1006.5 |
| 20260506023211 | 55 | 217 | 3.0 | 5.0 | 0.00 | 0.00 | 0.00 | 74 | 1006.5 |
| 20260506022206 | 55 | 259 | 2.0 | 5.0 | 0.00 | 0.00 | 0.00 | 73 | 1006.5 |
| 20260506021712 | 55 | 270 | 3.0 | 5.0 | 0.00 | 0.00 | 0.00 | 73 | 1006.5 |
| 20260506021212 | 55 | 246 | 4.0 | 5.0 | 0.00 | 0.00 | 0.00 | 73 | 1006.4 |
| 20260506020219 | 56 | 261 | 2.0 | 3.0 | 0.00 | 0.00 | 0.00 | 71 | 1006.2 |
| 20260506015708 | 56 | 266 | 2.0 | 3.0 | 0.00 | 0.00 | 0.00 | 71 | 1006.2 |
| 20260506015213 | 56 | 266 | 0.0 | 1.0 | 0.00 | 0.00 | 0.00 | 71 | 1006.1 |
| 20260506014720 | 56 | 32 | 0.0 | 1.0 | 0.00 | 0.00 | 0.00 | 70 | 1006.0 |
| 20260506014219 | 56 | 32 | 0.0 | 3.0 | 0.00 | 0.00 | 0.00 | 70 | 1005.9 |
| 20260506013715 | 57 | 32 | 0.0 | 3.0 | 0.00 | 0.00 | 0.00 | 70 | 1005.9 |
| 20260506013207 | 57 | 32 | 1.0 | 3.0 | 0.00 | 0.00 | 0.00 | 70 | 1005.9 |
| 20260506012215 | 57 | 55 | 2.0 | 3.0 | 0.00 | 0.00 | 0.00 | 69 | 1005.7 |
| 20260506011704 | 57 | 13 | 2.0 | 5.0 | 0.00 | 0.00 | 0.00 | 69 | 1005.8 |
| 20260506011215 | 58 | 355 | 2.0 | 6.0 | 0.00 | 0.00 | 0.00 | 69 | 1005.8 |
| 20260506010718 | 58 | 9 | 3.0 | 6.0 | 0.00 | 0.00 | 0.00 | 68 | 1005.8 |
| 20260506010213 | 58 | 346 | 3.0 | 6.0 | 0.00 | 0.00 | 0.00 | 68 | 1005.8 |
| 20260506005715 | 58 | 338 | 2.0 | 5.0 | 0.00 | 0.00 | 0.00 | 68 | 1005.7 |
| 20260506005211 | 58 | 343 | 2.0 | 5.0 | 0.00 | 0.00 | 0.00 | 67 | 1005.6 |
| 20260506004706 | 58 | 20 | 2.0 | 5.0 | 0.00 | 0.00 | 0.00 | 66 | 1005.4 |
| 20260506004213 | 59 | 19 | 1.0 | 4.0 | 0.00 | 0.00 | 0.00 | 66 | 1005.4 |
| 20260506003712 | 59 | 275 | 2.0 | 4.0 | 0.00 | 0.00 | 0.00 | 65 | 1005.3 |
| 20260506003218 | 59 | 311 | 3.0 | 5.0 | 0.00 | 0.00 | 0.00 | 65 | 1005.2 |
| 20260506002717 | 59 | 311 | 3.0 | 5.0 | 0.00 | 0.00 | 0.00 | 65 | 1005.1 |
| 20260506001712 | 59 | 234 | 3.0 | 4.0 | 0.00 | 0.00 | 0.00 | 65 | 1005.1 |
| 20260506001219 | 60 | 225 | 3.0 | 4.0 | 0.00 | 0.00 | 0.00 | 65 | 1005.0 |
| 20260506000717 | 60 | 234 | 3.0 | 6.0 | 0.00 | 0.00 | 0.00 | 64 | 1005.0 |
| 20260505235716 | 60 | 228 | 3.0 | 6.0 | 0.00 | 0.00 | 0.00 | 64 | 1004.9 |
| 20260505235216 | 60 | 227 | 4.0 | 6.0 | 0.00 | 0.00 | 0.00 | 64 | 1004.8 |
| 20260505234712 | 60 | 232 | 3.0 | 6.0 | 0.00 | 0.00 | 0.00 | 64 | 1004.8 |
| 20260505234218 | 59 | 188 | 3.0 | 6.0 | 0.00 | 0.00 | 0.00 | 65 | 1004.8 |
| 20260505233743 | 59 | 205 | 3.0 | 5.0 | 0.00 | 0.00 | 0.00 | 65 | 1004.7 |
| 20260505233212 | 59 | 194 | 2.0 | 5.0 | 0.00 | 0.00 | 0.00 | 65 | 1004.7 |
| 20260505232718 | 59 | 167 | 2.0 | 5.0 | 0.00 | 0.00 | 0.00 | 65 | 1004.7 |
| 20260505232216 | 59 | 190 | 2.0 | 5.0 | 0.00 | 0.00 | 0.00 | 65 | 1004.7 |
| 20260505231710 | 59 | 179 | 2.0 | 4.0 | 0.00 | 0.00 | 0.00 | 65 | 1004.7 |
| 20260505231211 | 59 | 170 | 2.0 | 7.0 | 0.00 | 0.00 | 0.00 | 64 | 1004.6 |
| 20260505230715 | 59 | 202 | 3.0 | 7.0 | 0.00 | 0.00 | 0.00 | 64 | 1004.6 |
| 20260505230210 | 59 | 196 | 4.0 | 7.0 | 0.00 | 0.00 | 0.00 | 64 | 1004.5 |
| 20260505225218 | 60 | 185 | 3.0 | 7.0 | 0.00 | 0.00 | 0.00 | 63 | 1004.5 |
| 20260505224712 | 60 | 202 | 3.0 | 7.0 | 0.00 | 0.00 | 0.00 | 63 | 1004.5 |
| 20260505224210 | 60 | 207 | 4.0 | 7.0 | 0.00 | 0.00 | 0.00 | 63 | 1004.4 |
| 20260505223705 | 60 | 178 | 4.0 | 6.0 | 0.00 | 0.00 | 0.00 | 63 | 1004.4 |
| 20260505223205 | 60 | 173 | 4.0 | 9.0 | 0.00 | 0.00 | 0.00 | 63 | 1004.4 |
| 20260505222710 | 60 | 179 | 4.0 | 9.0 | 0.00 | 0.00 | 0.00 | 62 | 1004.3 |
| 20260505221719 | 61 | 178 | 4.0 | 9.0 | 0.00 | 0.00 | 0.00 | 62 | 1004.1 |
| 20260505221209 | 61 | 198 | 4.0 | 9.0 | 0.00 | 0.00 | 0.00 | 61 | 1004.1 |
| 20260505220714 | 61 | 211 | 4.0 | 9.0 | 0.00 | 0.00 | 0.00 | 61 | 1004.0 |
| 20260505220211 | 61 | 169 | 3.0 | 9.0 | 0.00 | 0.00 | 0.00 | 60 | 1004.1 |
| 20260505215714 | 62 | 192 | 4.0 | 11.0 | 0.00 | 0.00 | 0.00 | 60 | 1004.1 |
| 20260505215207 | 62 | 180 | 5.0 | 12.0 | 0.00 | 0.00 | 0.00 | 60 | 1004.0 |
| 20260505214720 | 62 | 216 | 6.0 | 12.0 | 0.00 | 0.00 | 0.00 | 60 | 1004.0 |
| 20260505214214 | 62 | 201 | 6.0 | 12.0 | 0.00 | 0.00 | 0.00 | 60 | 1004.0 |
| 20260505213713 | 62 | 198 | 5.0 | 10.0 | 0.00 | 0.00 | 0.00 | 60 | 1003.9 |
| 20260505213206 | 62 | 213 | 6.0 | 12.0 | 0.00 | 0.00 | 0.00 | 59 | 1003.8 |
| 20260505212719 | 62 | 222 | 6.0 | 13.0 | 0.00 | 0.00 | 0.00 | 59 | 1003.8 |
| 20260505212223 | 62 | 221 | 7.0 | 13.0 | 0.00 | 0.00 | 0.00 | 59 | 1003.8 |
| 20260505211705 | 63 | 215 | 7.0 | 14.0 | 0.00 | 0.00 | 0.00 | 58 | 1003.7 |
| 20260505210711 | 63 | 223 | 8.0 | 16.0 | 0.00 | 0.00 | 0.00 | 58 | 1003.6 |
| 20260505205718 | 63 | 211 | 9.0 | 17.0 | 0.00 | 0.00 | 0.00 | 58 | 1003.4 |
| 20260505205213 | 63 | 235 | 9.0 | 18.0 | 0.00 | 0.00 | 0.00 | 58 | 1003.2 |
| 20260505204713 | 63 | 220 | 9.0 | 19.0 | 0.00 | 0.00 | 0.00 | 57 | 1003.2 |
| 20260505203208 | 64 | 184 | 10.0 | 21.0 | 0.00 | 0.00 | 0.00 | 57 | 1003.0 |
| 20260505202709 | 64 | 169 | 10.0 | 21.0 | 0.00 | 0.00 | 0.00 | 57 | 1003.0 |
| 20260505202206 | 64 | 197 | 11.0 | 23.0 | 0.00 | 0.00 | 0.00 | 57 | 1002.9 |
| 20260505201709 | 64 | 178 | 11.0 | 23.0 | 0.00 | 0.00 | 0.00 | 57 | 1002.9 |
| 20260505201219 | 64 | 189 | 11.0 | 21.0 | 0.00 | 0.00 | 0.00 | 57 | 1002.9 |
| 20260505200705 | 64 | 217 | 10.0 | 20.0 | 0.00 | 0.00 | 0.00 | 56 | 1002.9 |
| 20260505200217 | 64 | 205 | 10.0 | 23.0 | 0.00 | 0.00 | 0.00 | 56 | 1002.9 |
| 20260505195705 | 65 | 207 | 11.0 | 23.0 | 0.00 | 0.00 | 0.00 | 56 | 1002.9 |
| 20260505195217 | 65 | 195 | 11.0 | 23.0 | 0.00 | 0.00 | 0.00 | 56 | 1002.9 |
| 20260505194713 | 65 | 209 | 10.0 | 22.0 | 0.00 | 0.00 | 0.00 | 55 | 1003.0 |
| 20260505194216 | 65 | 157 | 10.0 | 22.0 | 0.00 | 0.00 | 0.00 | 55 | 1002.9 |
| 20260505193719 | 65 | 223 | 11.0 | 22.0 | 0.00 | 0.00 | 0.00 | 55 | 1002.8 |
| 20260505192717 | 65 | 183 | 10.0 | 16.0 | 0.00 | 0.00 | 0.00 | 54 | 1002.7 |
| 20260505192208 | 65 | 154 | 10.0 | 21.0 | 0.00 | 0.00 | 0.00 | 54 | 1002.7 |
| 20260505191705 | 66 | 168 | 10.0 | 21.0 | 0.00 | 0.00 | 0.00 | 54 | 1002.7 |
| 20260505191214 | 66 | 202 | 9.0 | 21.0 | 0.00 | 0.00 | 0.00 | 54 | 1002.8 |
| 20260505190713 | 66 | 216 | 8.0 | 16.0 | 0.00 | 0.00 | 0.00 | 54 | 1002.8 |
| 20260505190214 | 66 | 192 | 9.0 | 18.0 | 0.00 | 0.00 | 0.00 | 54 | 1002.9 |
| 20260505185707 | 66 | 174 | 10.0 | 18.0 | 0.00 | 0.00 | 0.00 | 54 | 1002.9 |
| 20260505185213 | 66 | 208 | 9.0 | 16.0 | 0.00 | 0.00 | 0.00 | 53 | 1002.8 |
| 20260505184716 | 66 | 186 | 9.0 | 17.0 | 0.00 | 0.00 | 0.00 | 53 | 1002.9 |
| 20260505184219 | 66 | 207 | 9.0 | 17.0 | 0.00 | 0.00 | 0.00 | 53 | 1002.9 |
| 20260505183705 | 67 | 186 | 9.0 | 17.0 | 0.00 | 0.00 | 0.00 | 53 | 1002.9 |
| 20260505183216 | 67 | 214 | 9.0 | 16.0 | 0.00 | 0.00 | 0.00 | 52 | 1002.9 |
| 20260505182717 | 67 | 200 | 9.0 | 19.0 | 0.00 | 0.00 | 0.00 | 52 | 1002.9 |
| 20260505182205 | 67 | 219 | 10.0 | 19.0 | 0.00 | 0.00 | 0.00 | 52 | 1002.9 |
| 20260505181719 | 67 | 210 | 10.0 | 19.0 | 0.00 | 0.00 | 0.00 | 51 | 1002.8 |
| 20260505181216 | 67 | 189 | 10.0 | 19.0 | 0.00 | 0.00 | 0.00 | 51 | 1002.9 |
| 20260505180715 | 68 | 144 | 10.0 | 21.0 | 0.00 | 0.00 | 0.00 | 51 | 1002.9 |
| 20260505180211 | 68 | 227 | 10.0 | 22.0 | 0.00 | 0.00 | 0.00 | 51 | 1002.9 |
| 20260505175707 | 68 | 223 | 11.0 | 24.0 | 0.00 | 0.00 | 0.00 | 50 | 1002.9 |
| 20260505175212 | 68 | 184 | 12.0 | 24.0 | 0.00 | 0.00 | 0.00 | 50 | 1002.8 |
| 20260505174717 | 68 | 190 | 12.0 | 24.0 | 0.00 | 0.00 | 0.00 | 50 | 1002.8 |
| 20260505174207 | 69 | 167 | 12.0 | 22.0 | 0.00 | 0.00 | 0.00 | 49 | 1002.7 |
| 20260505173720 | 69 | 187 | 12.0 | 22.0 | 0.00 | 0.00 | 0.00 | 49 | 1002.8 |
| 20260505173212 | 69 | 167 | 12.0 | 25.0 | 0.00 | 0.00 | 0.00 | 49 | 1002.8 |
| 20260505172717 | 69 | 224 | 13.0 | 25.0 | 0.00 | 0.00 | 0.00 | 49 | 1002.8 |
| 20260505172217 | 69 | 165 | 12.0 | 23.0 | 0.00 | 0.00 | 0.00 | 48 | 1002.9 |
| 20260505171704 | 69 | 209 | 10.0 | 18.0 | 0.00 | 0.00 | 0.00 | 48 | 1002.9 |
| 20260505171206 | 70 | 169 | 10.0 | 21.0 | 0.00 | 0.00 | 0.00 | 47 | 1002.9 |
| 20260505170731 | 70 | 163 | 10.0 | 26.0 | 0.00 | 0.00 | 0.00 | 47 | 1003.0 |
| 20260505170218 | 70 | 198 | 12.0 | 26.0 | 0.00 | 0.00 | 0.00 | 47 | 1003.1 |
| 20260505165714 | 71 | 197 | 13.0 | 26.0 | 0.00 | 0.00 | 0.00 | 46 | 1003.1 |
| 20260505165207 | 71 | 196 | 13.0 | 26.0 | 0.00 | 0.00 | 0.00 | 45 | 1003.1 |
| 20260505164719 | 72 | 189 | 13.0 | 26.0 | 0.00 | 0.00 | 0.00 | 45 | 1003.2 |
| 20260505164208 | 72 | 133 | 15.0 | 27.0 | 0.00 | 0.00 | 0.00 | 45 | 1003.2 |
| 20260505163713 | 72 | 200 | 16.0 | 27.0 | 0.00 | 0.00 | 0.00 | 45 | 1003.3 |
| 20260505163209 | 73 | 182 | 14.0 | 27.0 | 0.00 | 0.00 | 0.00 | 44 | 1003.4 |
| 20260505162712 | 73 | 186 | 14.0 | 25.0 | 0.00 | 0.00 | 0.00 | 44 | 1003.4 |
| 20260505162206 | 73 | 174 | 14.0 | 25.0 | 0.00 | 0.00 | 0.00 | 44 | 1003.5 |
| 20260505161718 | 73 | 166 | 13.0 | 24.0 | 0.00 | 0.00 | 0.00 | 44 | 1003.5 |
| 20260505161216 | 73 | 186 | 11.0 | 23.0 | 0.00 | 0.00 | 0.00 | 44 | 1003.5 |
| 20260505160708 | 73 | 166 | 11.0 | 26.0 | 0.00 | 0.00 | 0.00 | 44 | 1003.6 |
| 20260505160217 | 74 | 179 | 14.0 | 26.0 | 0.00 | 0.00 | 0.00 | 43 | 1003.6 |